Location: Krakow
(50.0830°N, 19.9170°E)
Time: 20:31:01
(UTC+01:00)

Altair - Pass Details

Date: 01 December 2023
Orbit: 1501 x 1682 km, 47.2° (Epoch: 03 March)

Event Time Altitude Azimuth Distance (km) Brightness Sun altitude
Rises 16:01:10 0° 288° (WNW) 4,664 10.7 -3.5°
Reaches altitude 10° 16:04:55 10° 275° (W) 3,665 10.5 -4.1°
Maximum altitude 16:11:44 24° 226° (SW) 2,709 10.0 -5.0°
Drops below altitude 10° 16:18:33 10° 178° (S) 3,652 9.8 -6.0°
Sets 16:22:18 0° 165° (SSE) 4,643 10.2 -6.5°
